Dew Point Data


Current

Temp 27.0 F. Dew Point 14.0 F.


Dew Point Comfort Scale

dewpoints

Date, Time Temperature Dew Point
Sat Jan 13 00:08:06 2018 20.0 F. 10.9 F.
Sat Jan 13 01:08:05 2018 19.0 F. 10.9 F.
Sat Jan 13 02:08:05 2018 18.0 F. 10.0 F.
Sat Jan 13 03:08:06 2018 18.0 F. 10.0 F.
Sat Jan 13 04:08:04 2018 17.0 F. 10.0 F.
Sat Jan 13 05:08:04 2018 17.0 F. 10.0 F.
Sat Jan 13 06:08:07 2018 16.0 F. 9.0 F.
Sat Jan 13 07:08:04 2018 15.0 F. 9.0 F.
Sat Jan 13 08:08:05 2018 15.0 F. 9.0 F.
Sat Jan 13 09:08:05 2018 17.0 F. 10.0 F.
Sat Jan 13 10:08:06 2018 20.0 F. 10.9 F.
Sat Jan 13 11:08:04 2018 21.0 F. 12.9 F.
Sat Jan 13 12:08:05 2018 22.0 F. 12.9 F.
Sat Jan 13 13:08:05 2018 22.0 F. 14.0 F.
Sat Jan 13 14:08:04 2018 23.0 F. 12.9 F.
Sat Jan 13 15:08:04 2018 24.0 F. 12.9 F.
Sat Jan 13 16:08:04 2018 23.0 F. 12.9 F.
Sat Jan 13 17:08:05 2018 22.0 F. 10.9 F.
Sat Jan 13 18:08:04 2018 22.0 F. 10.9 F.
Sat Jan 13 19:08:04 2018 22.0 F. 12.0 F.
Sat Jan 13 20:08:04 2018 20.0 F. 12.0 F.
Sat Jan 13 21:08:04 2018 19.0 F. 10.9 F.
Sat Jan 13 22:08:04 2018 17.0 F. 9.0 F.
Sat Jan 13 23:08:05 2018 16.0 F. 10.0 F.
Sun Jan 14 00:08:04 2018 16.0 F. 10.0 F.
Sun Jan 14 01:08:04 2018 14.0 F. 12.0 F.
Sun Jan 14 02:08:05 2018 12.0 F. 10.0 F.
Sun Jan 14 03:08:05 2018 12.0 F. 9.0 F.
Sun Jan 14 04:08:05 2018 12.0 F. 10.0 F.
Sun Jan 14 05:08:04 2018 11.0 F. 9.0 F.
Sun Jan 14 06:08:04 2018 11.0 F. 9.0 F.
Sun Jan 14 07:08:04 2018 11.0 F. 9.0 F.
Sun Jan 14 08:08:04 2018 13.0 F. 12.0 F.
Sun Jan 14 10:08:15 2018 20.0 F. 12.0 F.
Sun Jan 14 11:08:05 2018 23.0 F. 10.9 F.
Sun Jan 14 12:08:09 2018 24.0 F. 10.9 F.
Sun Jan 14 13:08:04 2018 25.0 F. 12.0 F.
Sun Jan 14 14:08:04 2018 25.0 F. 12.0 F.
Sun Jan 14 15:08:04 2018 25.0 F. 10.9 F.
Sun Jan 14 16:08:05 2018 24.0 F. 14.0 F.
Sun Jan 14 17:08:05 2018 24.0 F. 14.0 F.
Sun Jan 14 18:08:04 2018 23.0 F. 10.0 F.
Sun Jan 14 19:08:06 2018 22.0 F. 12.0 F.
Sun Jan 14 20:08:05 2018 22.0 F. 16.0 F.
Sun Jan 14 21:08:04 2018 22.0 F. 15.1 F.
Sun Jan 14 22:08:05 2018 22.0 F. 15.1 F.
Sun Jan 14 23:08:04 2018 23.0 F. 12.9 F.
Mon Jan 15 00:08:04 2018 23.0 F. 12.0 F.
Mon Jan 15 01:08:04 2018 23.0 F. 12.9 F.
Mon Jan 15 02:08:04 2018 24.0 F. 14.0 F.
Mon Jan 15 03:08:04 2018 25.0 F. 16.0 F.
Mon Jan 15 04:08:05 2018 26.0 F. 17.1 F.
Mon Jan 15 05:08:04 2018 26.0 F. 18.0 F.
Mon Jan 15 06:08:05 2018 24.0 F. 21.9 F.
Mon Jan 15 07:08:04 2018 25.0 F. 23.0 F.
Mon Jan 15 08:08:04 2018 25.0 F. 24.1 F.
Mon Jan 15 09:08:04 2018 26.0 F. 24.1 F.
Mon Jan 15 10:08:05 2018 26.0 F. 24.1 F.
Mon Jan 15 11:08:14 2018 27.0 F. 26.1 F.
Mon Jan 15 12:08:04 2018 29.0 F. 26.1 F.
Mon Jan 15 13:08:05 2018 26.0 F. 19.9 F.
Mon Jan 15 14:08:04 2018 25.0 F. 17.1 F.
Mon Jan 15 15:08:04 2018 25.0 F. 17.1 F.
Mon Jan 15 16:08:05 2018 23.0 F. 14.0 F.
Mon Jan 15 17:08:05 2018 22.0 F. 10.0 F.
Mon Jan 15 18:08:05 2018 21.0 F. 9.0 F.
Mon Jan 15 19:08:05 2018 19.0 F. 8.1 F.
Mon Jan 15 20:08:04 2018 16.0 F. 5.0 F.
Mon Jan 15 21:08:04 2018 14.0 F. 3.9 F.
Mon Jan 15 22:08:05 2018 12.0 F. 1.0 F.
Mon Jan 15 23:08:04 2018 12.0 F. 1.0 F.
Tue Jan 16 00:08:04 2018 11.0 F. 1.0 F.
Tue Jan 16 01:08:05 2018 11.0 F. -0.0 F.
Tue Jan 16 02:08:04 2018 8.0 F. -2.0 F.
Tue Jan 16 03:08:04 2018 6.0 F. -2.9 F.
Tue Jan 16 04:08:04 2018 5.0 F. -4.0 F.
Tue Jan 16 05:08:05 2018 4.0 F. -5.1 F.
Tue Jan 16 06:08:05 2018 3.0 F. -6.0 F.
Tue Jan 16 07:08:05 2018 2.0 F. -6.0 F.
Tue Jan 16 08:08:04 2018 2.0 F. -6.0 F.
Tue Jan 16 09:08:04 2018 3.0 F. -5.1 F.
Tue Jan 16 10:08:05 2018 4.0 F. -5.1 F.
Tue Jan 16 11:08:05 2018 6.0 F. -4.0 F.
Tue Jan 16 12:08:04 2018 7.0 F. -2.9 F.
Tue Jan 16 13:08:04 2018 8.0 F. -2.0 F.
Tue Jan 16 14:08:04 2018 8.0 F. -2.0 F.
Tue Jan 16 15:08:05 2018 9.0 F. -0.0 F.
Tue Jan 16 16:08:04 2018 9.0 F. -0.0 F.
Tue Jan 16 17:08:04 2018 9.0 F. -0.0 F.
Tue Jan 16 18:08:04 2018 10.0 F. 3.0 F.
Tue Jan 16 19:08:04 2018 11.0 F. 3.9 F.
Tue Jan 16 20:08:04 2018 11.0 F. 5.0 F.
Tue Jan 16 21:08:05 2018 10.0 F. 5.0 F.
Tue Jan 16 22:08:05 2018 10.0 F. 3.0 F.
Tue Jan 16 23:08:04 2018 10.0 F. 3.0 F.
Wed Jan 17 00:08:04 2018 10.0 F. 3.9 F.
Wed Jan 17 01:08:04 2018 10.0 F. 5.0 F.
Wed Jan 17 02:08:04 2018 10.0 F. 5.0 F.
Wed Jan 17 03:08:04 2018 10.0 F. 5.0 F.
Wed Jan 17 04:08:07 2018 9.0 F. 3.9 F.
Wed Jan 17 05:08:08 2018 7.0 F. 3.9 F.
Wed Jan 17 06:08:04 2018 6.0 F. 3.0 F.
Wed Jan 17 07:08:04 2018 6.0 F. 1.9 F.
Wed Jan 17 08:08:09 2018 6.0 F. 1.9 F.
Wed Jan 17 09:08:04 2018 7.0 F. 3.0 F.
Wed Jan 17 10:08:04 2018 11.0 F. 3.9 F.
Wed Jan 17 11:08:04 2018 14.0 F. 5.0 F.
Wed Jan 17 12:08:04 2018 17.0 F. 7.0 F.
Wed Jan 17 13:08:04 2018 19.0 F. 9.0 F.
Wed Jan 17 14:08:04 2018 20.0 F. 9.0 F.
Wed Jan 17 15:08:04 2018 20.0 F. 9.0 F.
Wed Jan 17 16:08:05 2018 22.0 F. 10.0 F.
Wed Jan 17 17:08:04 2018 23.0 F. 9.0 F.
Wed Jan 17 18:08:04 2018 18.0 F. 10.0 F.
Wed Jan 17 19:08:04 2018 19.0 F. 10.9 F.
Wed Jan 17 20:08:05 2018 17.0 F. 10.0 F.
Wed Jan 17 21:08:04 2018 14.0 F. 9.0 F.
Wed Jan 17 22:08:04 2018 14.0 F. 8.1 F.
Wed Jan 17 23:08:05 2018 13.0 F. 8.1 F.
Thu Jan 18 00:08:04 2018 13.0 F. 8.1 F.
Thu Jan 18 01:08:04 2018 13.0 F. 8.1 F.
Thu Jan 18 02:08:04 2018 13.0 F. 9.0 F.
Thu Jan 18 03:08:04 2018 11.0 F. 8.1 F.
Thu Jan 18 04:08:04 2018 13.0 F. 9.0 F.
Thu Jan 18 05:08:05 2018 10.0 F. 7.0 F.
Thu Jan 18 06:08:04 2018 10.0 F. 7.0 F.
Thu Jan 18 07:08:05 2018 13.0 F. 9.0 F.
Thu Jan 18 08:08:04 2018 15.0 F. 10.0 F.
Thu Jan 18 09:08:04 2018 15.0 F. 10.0 F.
Thu Jan 18 10:08:04 2018 19.0 F. 12.0 F.
Thu Jan 18 11:08:04 2018 27.0 F. 14.0 F.